Hourly Data Report for October 20, 2016

All times are specified in Local Standard Time (LST). Add 1 hour to adjust for Daylight Saving Time where and when it is observed.

FREDERICTON
NEW BRUNSWICK

45°52'08.000" N
66°32'14.000" W
20.70 m
8101505
71700
YFC

Download Data

Hourly Data (October 2016)
Hourly Data Report for October 20, 2016
Temp Definition
°C
Dew Point Temp Definition
°C
Rel Hum Definition
%
Wind Dir Definition
10's deg

Wind Spd Definition
km/h
Visibility Definition
km
Stn Press Definition
kPa
Hmdx Definition


Wind Chill Definition


Weather Definition


TIME
00:00 Legend Double Dagger 6.8 4.3 84 21 8 16.1 101.67     LegendNANA
01:00 Legend Double Dagger 7.7 4.9 82 26 4 16.1 101.76     LegendNANA
02:00 Legend Double Dagger 6.5 4.4 86 26 5 16.1 101.89     LegendNANA
03:00 Legend Double Dagger 3.8 2.4 91 21 8 16.1 101.93     LegendNANA
04:00 Legend Double Dagger 3.3 2.8 97 23 5 16.1 101.97     LegendNANA
05:00 Legend Double Dagger 2.8 2.1 95 21 11 16.1 102.04     LegendNANA
06:00 Legend Double Dagger 2.1 1.8 98 19 5 16.1 102.14     LegendNANA
07:00 Legend Double Dagger 1.9 1.8 99 21 8 16.1 102.24     LegendNANA
08:00 Legend Double Dagger 1.5 1.2 98 19 8 16.1 102.33     LegendNANA
09:00 Legend Double Dagger 4.9 3.9 93 22 8 16.1 102.38     LegendNANA
10:00 Legend Double Dagger 8.8 5.6 80 LegendMM 4 16.1 102.36     LegendNANA
11:00 Legend Double Dagger 10.7 6.0 73 17 5 16.1 102.37     LegendNANA
12:00 Legend Double Dagger 12.2 5.4 63 19 5 16.1 102.37     LegendNANA
13:00 Legend Double Dagger 12.4 4.5 58 LegendMM 4 16.1 102.32     LegendNANA
14:00 Legend Double Dagger 13.1 5.5 60 19 8 16.1 102.33     LegendNANA
15:00 Legend Double Dagger 13.2 5.1 58 20 4 16.1 102.32     LegendNANA
16:00 Legend Double Dagger 12.6 6.5 66 25 4 16.1 102.38     LegendNANA
17:00 Legend Double Dagger 11.9 7.2 73 35 8 16.1 102.43     LegendNANA
18:00 Legend Double Dagger 10.8 7.3 79   0 16.1 102.44     LegendNANA
19:00 Legend Double Dagger 10.7 6.9 77 8 8 16.1 102.40     LegendNANA
20:00 Legend Double Dagger 10.5 7.0 79 5 9 16.1 102.34     LegendNANA
21:00 Legend Double Dagger 9.7 7.2 84 6 4 16.1 102.34     LegendNANA
22:00 Legend Double Dagger 9.5 7.5 87 4 5 16.1 102.30     LegendNANA
23:00 Legend Double Dagger 9.4 7.5 88 5 5 16.1 102.21     LegendNANA

Notes on Data Quality.

Legend

  • E = Estimated
  • M = Missing
  • NA = Not Available
  • ‡ = Partner data that is not subject to review by the National Climate Archives
Date modified: